Regional Weather Roundup
Issued by NWS Little Rock, AR

Home | Current Version | Previous Version | Text Only | Print | Product List | Glossary On
Versions: 1 2 3 4 5 6 7 8 9 10 11 12 13 14 15 16 17 18 19 20 21 22 23 24 25 26 27 28 29 30 31 32 33 34 35 36 37 38 39 40 41 42 43 44 45 46 47 48 49 50
000
ASUS44 KLZK 170205
RWRLZK

WEATHER ROUNDUP FOR ARKANSAS
NATIONAL WEATHER SERVICE LITTLE ROCK AR
800 PM CST MON JAN 16 2017

NOTE: "FAIR" INDICATES FEW OR NO CLOUDS BELOW 12,000 FEET WITH NO
SIGNIFICANT WEATHER AND/OR OBSTRUCTIONS TO VISIBILITY.

ARZ001-003-010-029-170300-
NORTHWEST ARKANSAS

CITY           SKY/WX    TMP DP  RH WIND       PRES   REMARKS
FAYETTEVILLE   CLEAR     46  41  82 W8        30.01R
FORT SMITH     CLEAR     53  43  68 W10       30.01R
HARRISON       CLEAR     54  46  74 CALM      29.95R
BENTONVILLE    MOCLDY   N/A N/A N/A W10       30.01R
ROGERS         PTCLDY    45  39  79 W14       30.01R
SILOAM SPGS    MOCLDY    45  36  70 W8        30.01R
HIGHFILL       MOCLDY    45  39  79 W10       30.00R
SPRINGDALE     CLEAR     46  41  81 W15G23    30.01R
$$

ARZ004-005-016-170300-
NORTH CENTRAL ARKANSAS

CITY           SKY/WX    TMP DP  RH WIND       PRES   REMARKS
BATESVILLE     CLOUDY    63  61  94 SW3       29.94S
FLIPPIN        MOCLDY    55  52  88 CALM      29.91R VSB 1/2
MTN HOME       FOG       57  57 100 CALM      29.92R VSB 3/4
$$

ARZ040-041-170300-
WEST CENTRAL ARKANSAS

CITY           SKY/WX    TMP DP  RH WIND       PRES   REMARKS
MENA           CLEAR     57  50  77 SW6       30.02R
MOUNT IDA      CLEAR     56  53  90 CALM      29.97R
$$

ARZ009-017-025-026-028-170300-
NORTHEAST ARKANSAS

CITY           SKY/WX    TMP DP  RH WIND       PRES   REMARKS
CORNING        MOCLDY    63  63 100 S12       29.93F
JONESBORO      RAIN      63  61  93 S16G23    29.94F
NEWPORT        LGT RAIN  61  61 100 S8        29.94F
WALNUT RIDGE   CLOUDY    61  57  88 S15       29.94S
BLYTHEVILLE    LGT RAIN  63  61  93 S14G20    29.96F
$$

ARZ022-023-033-042-044-170300-
CENTRAL ARKANSAS

CITY           SKY/WX    TMP DP  RH WIND       PRES   REMARKS
LITTLE ROCK    CLOUDY    64  64 100 SW9       29.98R
N LITTLE ROCK    N/A     62  61  96 W6        29.99R
JACKSONVILLE   CLEAR     64  64  99 SW5       29.96R
SEARCY         LGT RAIN  64  64 100 SW5       29.97R
HOT SPRINGS    MOCLDY    60  60 100 W3        29.99R
RUSSELLVILLE   PTCLDY    54  54 100 VRB3      29.95R FOG
CLINTON        FOG       55  55 100 CALM      29.94R VSB 1/4
$$

ARZ036-170300-
EAST ARKANSAS

CITY           SKY/WX    TMP DP  RH WIND       PRES   REMARKS
WEST MEMPHIS   LGT RAIN  65  63  93 S18       29.96S
$$

ARZ050-053-066-070-073-170300-
SOUTHWEST ARKANSAS

CITY           SKY/WX    TMP DP  RH WIND       PRES   REMARKS
ARKADELPHIA    CLOUDY    61  58  90 S3        30.00R
CAMDEN         RAIN      66  63  88 W5        30.00R
TEXARKANA      LGT RAIN  60  60 100 CALM      30.01R
EL DORADO      LGT RAIN  67  66  97 SW5       30.00R
DE QUEEN       CLEAR     56  47  71 W10       30.01R
$$

ARZ056-057-069-170300-
SOUTHEAST ARKANSAS

CITY           SKY/WX    TMP DP  RH WIND       PRES   REMARKS
PINE BLUFF     CLOUDY    67  64  90 S15G24    29.97S
STUTTGART      CLOUDY    68  61  77 S15       29.98R
MONTICELLO     LGT RAIN  68  65  90 S7        30.01R

$$





USA.gov is the U.S. government's official web portal to all federal, state and local government web resources and services.